Retour au catalogue

COSMOS 2251 DEB

ActifLEO
NORAD 34813·DEBRIS·🇷🇺 Russia

Lancé Jun 16, 1993 depuis Plesetsk Cosmodrome

Loading…

Prochains Passages (prochaines 24 heures)

TLE

FraisSource: Space-Track

Époque: Sep 13, 2026, 11:28 UTC

1 34813U 93036ABC 26256.47785943  .00001306  00000-0  10710-2 0  9999
2 34813  73.9248  50.8611 0448623  33.4389 329.4203 13.51995646853662

Suivez COSMOS 2251 DEB en temps réel avec AllMySat

Download on the App Store